Regional Weather Roundup
Issued by NWS

Home | Current Version | Previous Version | Text Only | Print | Product List | Glossary Off
Versions: 1 2 3 4 5 6 7 8 9 10 11 12 13 14 15 16 17 18 19 20 21 22 23 24 25 26 27 28 29 30 31 32 33 34 35 36 37 38 39 40 41 42 43 44 45 46 47 48 49 50

000
ASUS43 KIND 280309
RWRIN

WEATHER ROUNDUP FOR INDIANA
NATIONAL WEATHER SERVICE INDIANAPOLIS IN
1100 PM EDT THU AUG 27 2015

NOTE: "FAIR" INDICATES FEW OR NO CLOUDS BELOW 12,000 FEET WITH NO
SIGNIFICANT WEATHER AND/OR OBSTRUCTIONS TO VISIBILITY.

* - STATION DOES NOT REPORT WEATHER SUCH AS PRECIPITATION OR FOG.

+ - STATION NOT QUALITY CONTROLLED BY THE NATIONAL WEATHER SERVICE.
    USE DATA WITH CAUTION...ESPECIALLY DEWPOINT AND RELATIVE
    HUMIDITY OBSERVATIONS.

INZ001>003-010>013-019-020-280400-
NORTHWEST INDIANA

CITY           SKY/WX    TMP DP  RH WIND       PRES   REMARKS
KNOX *+        PTCLDY    55  55 100 CALM      30.14S
LA PORTE +     PTCLDY    58  58 100 CALM      30.16S
MICHIGAN CITY+ PTCLDY    55  55 100 CALM      30.15F FOG
MONTICELLO +   PTCLDY    65  58  80 CALM      30.13R
RENSSELAER +   CLEAR     61  59  94 NE5       30.13S
VALPARAISO     PTCLDY    58  55  90 NE3       30.15S

$$

LMZ046-743>745-280400-
SOUTHERN LAKE MICHIGAN

STATION/POSITION TIME  TEMP    WIND        PRES    WAVE
                       AIR SEA DIR/SP/G            HT
                 (UTC) (F)     (DEG/KT/KT) (MB)    (FT)
BURNS HARBOR     0200   65     100/  8/  9 1021.0R
MICHIGAN CITY    0200   64      60/  6/  7   N/A
5NW MICH CITY    0300   66 71  110/ 10/ 12   N/A     1

$$

INZ004-005-014>016-021>024-280400-
NORTH CENTRAL INDIANA

CITY           SKY/WX    TMP DP  RH WIND       PRES   REMARKS
GOSHEN         PTCLDY    59  54  83 E3        30.16R
LOGANSPORT +   PTCLDY    57  54  88 E6        30.15R
PERU/GRISSOM   CLEAR     64  57  80 E5        30.14R
ROCHESTER +    CLEAR     61  59  94 CALM      30.15S
SOUTH BEND     PTCLDY    58  55  90 CALM      30.16S
WARSAW +       PTCLDY    57  54  88 E3        30.16R

$$

INZ006>009-017-018-025>027-280400-
NORTHEAST INDIANA

CITY           SKY/WX    TMP DP  RH WIND       PRES   REMARKS
ANGOLA *+      CLEAR     55  54  94 CALM      30.17F
AUBURN +       CLEAR     55  52  88 E3        30.17F
FORT WAYNE     PTCLDY    60  55  83 E6        30.16S
HUNTINGTON +   CLEAR     60  52  75 CALM      30.15S

$$

INZ028-029-035-036-043>045-051>053-280400-
WEST CENTRAL INDIANA

CITY           SKY/WX    TMP DP  RH WIND       PRES   REMARKS
CRAWFORDSVL +  PTCLDY    56  56 100 CALM      30.12F
GREENCASTLE +  PTCLDY    61  55  82 CALM      30.13S
LAFAYETTE      PTCLDY    63  58  83 NE3       30.12R
TERRE HAUTE    CLEAR     63  59  87 CALM      30.11S

$$

INZ030>032-037>040-046>048-054>057-064-065-280400-
CENTRAL INDIANA

CITY           SKY/WX    TMP DP  RH WIND       PRES   REMARKS
FRANKFORT +    PTCLDY    61  61 100 E5        30.15S
GREENWOOD *+   PTCLDY    66  55  68 SE3       30.14S
INDIANAPOLIS   MOCLDY    68  57  68 SE6       30.11S
-EAGLE CREEK   PTCLDY    68  58  70 E3        30.12S
KOKOMO *+      CLEAR     61  54  77 E5        30.15R
MARION +       CLEAR     60  50  68 E3        30.15S
MT COMFORT *+  PTCLDY    61 N/A N/A E5        30.14S
SHELBYVILLE    CLEAR     65  58  78 SE5       30.13S
ZIONSVILLE +   PTCLDY    63  57  81 E3        30.14S

$$

INZ033-034-041-042-049-050-058-059-280400-
EAST CENTRAL INDIANA

CITY           SKY/WX    TMP DP  RH WIND       PRES   REMARKS
MUNCIE         CLEAR     57  55  93 SE5       30.15S

$$

INZ060-061-067>069-081>083-085>088-280400-
SOUTHWEST INDIANA

CITY           SKY/WX    TMP DP  RH WIND       PRES   REMARKS
EVANSVILLE     CLEAR     66  60  81 CALM      30.11S
HUNTINGBURG *+ CLEAR     64  57  77 SE3       30.12R
WASHINGTON +   CLEAR     63  59  88 S3        30.11S

$$

INZ062-063-066-070>080-084-089>092-280400-
SOUTH CENTRAL AND SOUTHEAST INDIANA

CITY           SKY/WX    TMP DP  RH WIND       PRES   REMARKS
BLOOMINGTON    PTCLDY    60  58  92 CALM      30.13R
MADISON *+     CLEAR     59  55  88 E5        30.16S
NORTH VERNON + CLEAR     64  59  82 CALM      30.15S
SEYMOUR +      PTCLDY    63  57  82 E3        30.13S

$$



USA.gov is the U.S. government's official web portal to all federal, state and local government web resources and services.